Regional Weather Roundup
Issued by NWS

Home | Current Version | Previous Version | Text Only | Print | Product List | Glossary On
Versions: 1 2 3 4 5 6 7 8 9 10 11 12 13 14 15 16 17 18 19 20 21 22 23 24 25 26 27
000
ASUS45 KTFX 050710
RWRMT
MONTANA REGIONAL WEATHER ROUNDUP
NATIONAL WEATHER SERVICE GREAT FALLS MT
100 AM MDT THU MAY 05 2016

NOTE: "FAIR" INDICATES FEW OR NO CLOUDS BELOW 12000 FEET WITH NO
SIGNIFICANT WEATHER AND/OR OBSTRUCTIONS TO VISIBILITY.

MTZ001>007-043-050800-
WEST OF THE DIVIDE

CITY           SKY/WX    TMP DP  RH WIND       PRES   REMARKS
KALISPELL      MOCLDY    51  46  83 CALM      29.84S
MISSOULA       MOCLDY    55  40  56 E3        29.89R
BUTTE          CLOUDY    51  34  52 CALM      30.00S
MULLAN PASS    CLOUDY    49  38  65 SE8       29.97F
ANACONDA         N/A     54  34  47 S7        29.97S
DEER LODGE       N/A     48  36  61 W5        29.96S
EUREKA           N/A     57  45  62 SE5       29.86R
HAMILTON         N/A     57  37  47 S6        29.89S
LIBBY            N/A     55  46  71 CALM      29.86S
PLAINS           N/A     55  45  69 NE1       29.87R
$$

MTZ008-052>055-050800-
SOUTHWEST MONTANA

CITY           SKY/WX    TMP DP  RH WIND       PRES   REMARKS
BOZEMAN        CLOUDY    53  35  50 SE6       29.97R
DILLON         CLOUDY    56  31  38 SW6       29.98R
ENNIS          CLEAR     48  32  53 S9        30.07R
THREE FORKS      N/A     54  13  19 CALM      29.95S
TWIN BRIDGES     N/A     54  29  38 E6        29.97S
$$

MTZ009-010-012-014-046-048-049-054-050800-
EAST SLOPES AND CENTRAL MONTANA

CITY           SKY/WX    TMP DP  RH WIND       PRES   REMARKS
CUT BANK       CLOUDY    53  40  61 W7        29.88F
GREAT FALLS    CLOUDY    54  41  61 W5        29.90R
MALMSTROM AFB  CLOUDY    51  43  74 S5        29.89S
HELENA         CLOUDY    58  35  42 CALM      29.92R
CHOTEAU          N/A     55  37  50 W7        29.90F
CONRAD           N/A     50  43  77 CALM      29.92S
$$

MTZ011-013-016-021-045-047-050-051-050800-
NORTH CENTRAL MONTANA

CITY           SKY/WX    TMP DP  RH WIND       PRES   REMARKS
HAVRE          PTCLDY    50  43  77 W8        29.83R
LEWISTOWN      PTCLDY    56  34  43 SE3       29.93R
N BAR RANCH      N/A     55  32  41 CALM      29.97S
$$

MTZ017>020-022>027-061-062-050800-
NORTHEAST MONTANA

CITY           SKY/WX    TMP DP  RH WIND       PRES   REMARKS
GLASGOW        CLOUDY    60  40  47 E12       29.82S
JORDAN           N/A     51  45  79 E5        29.85S
SIDNEY         CLEAR     55  41  58 SW8       29.88R
WOLF POINT     CLEAR     52  43  71 CALM      29.84R
POPLAR           N/A     59  41  51 CALM      29.84F
SCOBEY           N/A     50  33  51 SW1       29.85
$$

MTZ028>42-056>058-050800-
SOUTHCENTRAL AND SOUTHEAST MONTANA

CITY           SKY/WX    TMP DP  RH WIND       PRES   REMARKS
BAKER          CLEAR     60  40  47 S14       29.94S
BILLINGS       PTCLDY    62  41  46 SW15      29.91S
LIVINGSTON     CLOUDY    50  34  54 NW7       29.97S
MILES CITY     CLOUDY    62  43  49 SE13      29.88F
EKALAKA          N/A     59  40  49 E10       29.95F
FORSYTH          N/A     63  41  45 CALM      29.87S
LAUREL           N/A     53  39  59 W1        29.92R
ROUNDUP          N/A     59  33  37 W1        29.83S
$$

REGIONAL REPORTS...DAKOTAS

CITY           SKY/WX    TMP DP  RH WIND       PRES   REMARKS
WILLISTON      CLEAR     63  40  42 S6        29.86S
MINOT          CLEAR     68  42  38 SW12      29.85F
DICKINSON      CLEAR     55  41  59 S13       29.92F
BEACH            N/A     57  41  54 S13       29.95F
CROSBY           N/A     57  39  51 S13       29.85S
TIOGA            N/A     57  39  51 SW14      29.92S
WATFORD CITY     N/A     59  41  51 S7        29.88S
BISMARCK       CLEAR     63  45  51 SW10      29.94F
GRAND FORKS    CLEAR     54  30  40 S10       29.87F
FARGO          CLEAR     53  29  39 S10       29.93S
BUFFALO SD       N/A     56  44  64 SE8       29.92S
RAPID CITY     CLEAR     50  43  77 SE8       30.01F
$$

REGIONAL REPORTS...WYOMING/IDAHO/WASHINGTON

CITY           SKY/WX    TMP DP  RH WIND       PRES   REMARKS
GILLETTE       CLEAR     54  42  64 S16       29.99F
SHERIDAN       CLOUDY    50  37  61 CALM      29.96S
BUFFALO WY     CLOUDY    60  27  28 SW8       30.02S
CODY           CLOUDY    59  28  31 SW9       30.01S
YELLOWSTONE LA   N/A     35  29  78 CALM      30.20F
IDAHO FALLS    CLOUDY    51  38  60 N6        30.01S
SALMON         CLOUDY    55  34  44 CALM      29.91S
BOISE          CLOUDY    68  43  40 N9        29.84F
SPOKANE        CLOUDY    56  51  84 SW26G35   29.92R
$$

REGIONAL REPORTS...ALBERTA

CITY           SKY/WX    TMP DP  RH WIND       PRES   REMARKS
EDMONTON       CLEAR     59  30  33 N14       29.82R
CALGARY        MOCLDY    64  34  32 NW8G17    29.83R
LETHBRIDGE     MOCLDY    61  41  48 SW12      29.83S
MEDICINE HAT   CLEAR     54  41  62 SW8       29.79R
CARDSTON         N/A     57  39  51 SW6         N/A
MILK RIVER       N/A     52  41  66 NW9         N/A
ONEFOUR          N/A     55  41  58 NW1         N/A
$$

REGIONAL REPORTS...SASKATCHEWAN

CITY           SKY/WX    TMP DP  RH WIND       PRES   REMARKS
SWIFT CURRENT  CLEAR     59  37  44 S14       29.79S
REGINA         CLEAR     54  34  47 SW6       29.78S
SASKATOON      PTCLDY    57  39  51 W3        29.73R
CYPRESS HILLS    N/A     59  30  33 SE3         N/A
VAL MARIE        N/A     48  39  71 E5          N/A
ROCKGLEN         N/A     59  36  41 SW6         N/A
ASSINIBOIA       N/A     61  39  44 N15G21      N/A
$$




USA.gov is the U.S. government's official web portal to all federal, state and local government web resources and services.